When you browse on this site, cookies collect data to enhance your experience and personalize the content and advertising you see.
Visit our Privacy Policy to learn more. By continuing to use the site, you agree to this use of cookies and data.
  • En España
  • Lista de países
  • Para 7 días
  • Temperatura del agua
  • El tiempo en el mapa
  • Informadores
  • user-avatar
    Iniciar sesión

    Tiempo cada hora Yulara

    Hoy, 1 Abril, Miércoles

    Tiempo Temperatura Precipitaciones Viento Presión Humedad
    00:00 +23°C° 0 mm 5 mps 714 mmHg 64%
    01:00 +22°C° 0.1 mm 5 mps 714 mmHg 66%
    02:00 +22°C° 0.1 mm 4 mps 714 mmHg 67%
    03:00 +21°C° 0 mm 5 mps 714 mmHg 70%
    04:00 +21°C° 0.1 mm 5 mps 714 mmHg 69%
    05:00 +22°C° 0.1 mm 5 mps 713 mmHg 69%
    06:00 +22°C° 0.1 mm 5 mps 713 mmHg 68%
    07:00 +25°C° 0 mm 4 mps 714 mmHg 59%
    08:00 +27°C° 0 mm 4 mps 714 mmHg 50%
    09:00 +29°C° 0 mm 3 mps 715 mmHg 44%
    10:00 +32°C° 0 mm 4 mps 715 mmHg 38%
    11:00 +34°C° 0 mm 5 mps 715 mmHg 31%
    12:00 +36°C° 0 mm 6 mps 714 mmHg 25%
    13:00 +38°C° 0 mm 6 mps 714 mmHg 23%
    14:00 +39°C° 0 mm 7 mps 713 mmHg 21%
    15:00 +39°C° 0 mm 6 mps 713 mmHg 21%
    16:00 +38°C° 0.3 mm 6 mps 713 mmHg 25%
    17:00 +35°C° 0.3 mm 6 mps 713 mmHg 29%
    18:00 +33°C° 0.3 mm 6 mps 713 mmHg 33%
    19:00 +30°C° 0 mm 5 mps 714 mmHg 41%
    20:00 +29°C° 0 mm 4 mps 714 mmHg 50%
    21:00 +27°C° 0 mm 4 mps 715 mmHg 59%
    22:00 +26°C° 0 mm 3 mps 714 mmHg 63%
    23:00 +25°C° 0 mm 3 mps 714 mmHg 67%

    Mañana, 2 Abril, Jueves

    Tiempo Temperatura Precipitaciones Viento Presión Humedad
    00:00 +24°C° 0 mm 2 mps 714 mmHg 71%
    01:00 +24°C° 0 mm 2 mps 713 mmHg 73%
    02:00 +23°C° 0 mm 2 mps 713 mmHg 75%
    03:00 +22°C° 0 mm 3 mps 713 mmHg 77%
    04:00 +22°C° 0 mm 3 mps 713 mmHg 78%
    05:00 +22°C° 0 mm 3 mps 713 mmHg 79%
    06:00 +21°C° 0 mm 3 mps 713 mmHg 79%
    07:00 +22°C° 0 mm 3 mps 714 mmHg 76%
    08:00 +23°C° 0 mm 4 mps 714 mmHg 72%
    09:00 +25°C° 0 mm 4 mps 715 mmHg 68%
    10:00 +27°C° 0 mm 4 mps 714 mmHg 59%
    11:00 +30°C° 0 mm 3 mps 714 mmHg 50%
    12:00 +33°C° 0 mm 3 mps 713 mmHg 41%
    13:00 +35°C° 0 mm 4 mps 713 mmHg 34%
    14:00 +37°C° 0 mm 5 mps 712 mmHg 27%
    15:00 +40°C° 0 mm 7 mps 711 mmHg 21%
    16:00 +39°C° 0 mm 6 mps 711 mmHg 21%
    17:00 +38°C° 0 mm 6 mps 711 mmHg 21%
    18:00 +36°C° 0 mm 5 mps 712 mmHg 21%
    19:00 +34°C° 0 mm 6 mps 712 mmHg 23%
    20:00 +33°C° 0 mm 6 mps 712 mmHg 25%
    21:00 +30°C° 0 mm 6 mps 713 mmHg 27%
    22:00 +29°C° 0 mm 6 mps 713 mmHg 34%
    23:00 +27°C° 0 mm 5 mps 713 mmHg 40%

    Pasado mañana, 3 Abril, Viernes

    Tiempo Temperatura Precipitaciones Viento Presión Humedad
    00:00 +26°C° 0 mm 4 mps 713 mmHg 47%
    01:00 +25°C° 0 mm 4 mps 712 mmHg 51%
    02:00 +24°C° 0 mm 3 mps 712 mmHg 55%
    03:00 +24°C° 0 mm 3 mps 712 mmHg 60%
    04:00 +22°C° 0 mm 3 mps 712 mmHg 63%
    05:00 +22°C° 0 mm 3 mps 713 mmHg 66%
    06:00 +21°C° 0 mm 3 mps 713 mmHg 70%
    07:00 +24°C° 0 mm 3 mps 713 mmHg 61%
    08:00 +26°C° 0 mm 3 mps 714 mmHg 52%
    09:00 +28°C° 0 mm 3 mps 714 mmHg 43%
    10:00 +30°C° 0 mm 3 mps 714 mmHg 36%
    11:00 +32°C° 0 mm 2 mps 714 mmHg 30%
    12:00 +34°C° 0 mm 1 mps 713 mmHg 24%
    13:00 +36°C° 0 mm 3 mps 713 mmHg 22%
    14:00 +37°C° 0 mm 4 mps 712 mmHg 19%
    15:00 +39°C° 0 mm 5 mps 712 mmHg 17%
    16:00 +37°C° 0 mm 5 mps 712 mmHg 18%
    17:00 +36°C° 0 mm 4 mps 712 mmHg 20%
    18:00 +35°C° 0 mm 4 mps 712 mmHg 21%
    19:00 +33°C° 0 mm 5 mps 713 mmHg 23%
    20:00 +32°C° 0 mm 6 mps 713 mmHg 25%
    21:00 +30°C° 0 mm 7 mps 714 mmHg 27%
    22:00 +28°C° 0 mm 8 mps 714 mmHg 31%
    23:00 +26°C° 0 mm 8 mps 714 mmHg 35%

    4 Abril, Sábado

    Tiempo Temperatura Precipitaciones Viento Presión Humedad
    00:00 +24°C° 0 mm 9 mps 715 mmHg 38%
    01:00 +23°C° 0 mm 9 mps 715 mmHg 45%
    02:00 +22°C° 0 mm 8 mps 715 mmHg 51%
    03:00 +20°C° 0 mm 8 mps 715 mmHg 57%
    04:00 +20°C° 0 mm 8 mps 716 mmHg 57%
    05:00 +18°C° 0 mm 8 mps 716 mmHg 56%
    06:00 +18°C° 0 mm 7 mps 717 mmHg 55%
    07:00 +20°C° 0 mm 7 mps 717 mmHg 52%
    08:00 +21°C° 0 mm 7 mps 718 mmHg 49%
    09:00 +21°C° 0 mm 7 mps 718 mmHg 46%
    10:00 +23°C° 0 mm 7 mps 718 mmHg 41%
    11:00 +27°C° 0 mm 7 mps 718 mmHg 35%
    12:00 +29°C° 0 mm 7 mps 718 mmHg 30%
    13:00 +29°C° 0 mm 7 mps 718 mmHg 27%
    14:00 +30°C° 0 mm 7 mps 717 mmHg 24%
    15:00 +32°C° 0 mm 7 mps 717 mmHg 22%
    16:00 +30°C° 0 mm 7 mps 717 mmHg 22%
    17:00 +29°C° 0 mm 7 mps 717 mmHg 22%
    18:00 +28°C° 0 mm 7 mps 718 mmHg 23%
    19:00 +26°C° 0 mm 7 mps 718 mmHg 23%
    20:00 +24°C° 0 mm 7 mps 719 mmHg 23%
    21:00 +22°C° 0 mm 7 mps 719 mmHg 23%
    22:00 +21°C° 0 mm 8 mps 719 mmHg 25%
    23:00 +21°C° 0 mm 8 mps 719 mmHg 27%

    5 Abril, Domingo

    Tiempo Temperatura Precipitaciones Viento Presión Humedad
    00:00 +20°C° 0 mm 8 mps 719 mmHg 29%
    01:00 +18°C° 0 mm 8 mps 719 mmHg 31%
    02:00 +18°C° 0 mm 8 mps 718 mmHg 33%
    03:00 +17°C° 0 mm 8 mps 718 mmHg 35%
    04:00 +17°C° 0 mm 8 mps 718 mmHg 35%
    05:00 +17°C° 0 mm 8 mps 719 mmHg 36%
    06:00 +17°C° 0 mm 8 mps 719 mmHg 36%
    07:00 +17°C° 0.1 mm 8 mps 720 mmHg 37%
    08:00 +18°C° 0.1 mm 8 mps 720 mmHg 37%
    09:00 +18°C° 0.1 mm 8 mps 721 mmHg 37%
    10:00 +18°C° 0 mm 8 mps 720 mmHg 37%
    11:00 +20°C° 0 mm 7 mps 720 mmHg 37%
    12:00 +21°C° 0 mm 7 mps 720 mmHg 38%
    13:00 +21°C° 0 mm 7 mps 720 mmHg 37%
    14:00 +22°C° 0 mm 8 mps 719 mmHg 37%
    15:00 +22°C° 0 mm 8 mps 719 mmHg 36%
    16:00 +22°C° 0 mm 7 mps 719 mmHg 37%
    17:00 +22°C° 0 mm 6 mps 719 mmHg 37%
    18:00 +21°C° 0 mm 5 mps 719 mmHg 38%
    19:00 +21°C° 0 mm 5 mps 720 mmHg 38%
    20:00 +21°C° 0 mm 4 mps 720 mmHg 38%
    21:00 +21°C° 0 mm 4 mps 721 mmHg 38%
    22:00 +20°C° 0 mm 4 mps 721 mmHg 39%
    23:00 +20°C° 0 mm 4 mps 720 mmHg 41%

    6 Abril, Lunes

    Tiempo Temperatura Precipitaciones Viento Presión Humedad
    00:00 +19°C° 0 mm 4 mps 720 mmHg 42%
    01:00 +19°C° 0 mm 5 mps 720 mmHg 42%
    02:00 +19°C° 0 mm 5 mps 720 mmHg 42%
    03:00 +19°C° 0 mm 5 mps 720 mmHg 42%
    04:00 +17°C° 0 mm 5 mps 720 mmHg 42%
    05:00 +17°C° 0 mm 6 mps 720 mmHg 41%
    06:00 +17°C° 0 mm 6 mps 720 mmHg 40%
    07:00 +18°C° 0 mm 7 mps 721 mmHg 38%
    08:00 +20°C° 0 mm 8 mps 721 mmHg 35%
    09:00 +21°C° 0 mm 9 mps 722 mmHg 32%
    10:00 +23°C° 0 mm 8 mps 721 mmHg 30%
    11:00 +24°C° 0 mm 8 mps 721 mmHg 29%
    12:00 +26°C° 0 mm 8 mps 721 mmHg 27%
    13:00 +26°C° 0 mm 7 mps 720 mmHg 26%
    14:00 +27°C° 0 mm 7 mps 720 mmHg 26%
    15:00 +28°C° 0 mm 7 mps 719 mmHg 25%
    16:00 +27°C° 0 mm 6 mps 719 mmHg 26%
    17:00 +27°C° 0 mm 6 mps 719 mmHg 27%
    18:00 +26°C° 0 mm 5 mps 719 mmHg 28%
    19:00 +25°C° 0 mm 5 mps 720 mmHg 29%
    20:00 +23°C° 0 mm 5 mps 720 mmHg 30%
    21:00 +22°C° 0 mm 5 mps 720 mmHg 31%
    22:00 +22°C° 0 mm 5 mps 720 mmHg 31%
    23:00 +22°C° 0 mm 6 mps 720 mmHg 32%
    Mostrar más